Location: Cortada de Papelón
(10.0378°N, 66.9528°W)
Time: 08:50:30
(UTC+00:00)

Hubble Space Telescope - Pass Details

Date: 13 June 2024
Orbit: 509 x 513 km, 28.5° (Epoch: 19 July)

Event Time Altitude Azimuth Distance (km) Brightness Sun altitude
Rises 23:48:11 0° 268° (W) 2,612 5.4 -13.9°
Reaches altitude 10° 23:51:25 10° 241° (WSW) 1,727 3.8 -14.6°
Maximum altitude 23:53:23 13° 211° (SSW) 1,528 3.1 -15.1°
Drops below altitude 10° 23:55:21 10° 181° (S) 1,727 3.1 -15.5°
Enters shadow 23:55:35 - 178° (S) 1,771 3.1 -15.5°
